This is the latest recevied weather packets stored in our database for station/object DJ4RO-13. If no packets are shown the sender has not sent any weather packets the latest 10 day(s).
| Time | Temp. | Humidity | Pressure | Rain* | Wind** | Luminosity | Snow |
|---|---|---|---|---|---|---|---|
| 1777204773 | 13.89° C | 31% | 1030.4 hPa | 0 mm | - | 553 W/m² | - |
| 1777204412 | 13.89° C | 29% | 1030.4 hPa | 0 mm | - | 557 W/m² | - |
| 1777204053 | 13.89° C | 30% | 1030.4 hPa | 0 mm | - | 561 W/m² | - |
| 1777203752 | 13.33° C | 30% | 1030.4 hPa | 0 mm | - | 565 W/m² | - |
| 1777203452 | 13.33° C | 29% | 1030.3 hPa | 0 mm | - | 567 W/m² | - |
| 1777203134 | 12.78° C | 31% | 1030.5 hPa | 0 mm | - | 573 W/m² | - |
| 1777202813 | 13.33° C | 32% | 1030.5 hPa | 0 mm | - | 572 W/m² | - |
| 1777202493 | 13.33° C | 34% | 1030.4 hPa | 0 mm | - | 578 W/m² | - |
| 1777202132 | 13.33° C | 32% | 1030.4 hPa | 0 mm | - | 579 W/m² | - |
| 1777201832 | 13.33° C | 32% | 1030.4 hPa | 0 mm | - | 580 W/m² | - |
| 1777201473 | 13.33° C | 34% | 1030.2 hPa | 0 mm | - | 584 W/m² | - |
| 1777201172 | 13.89° C | 32% | 1030.3 hPa | 0 mm | - | 586 W/m² | - |
| 1777200812 | 13.89° C | 33% | 1030.5 hPa | 0 mm | - | 588 W/m² | - |
| 1777200452 | 13.33° C | 33% | 1030.3 hPa | 0 mm | - | 588 W/m² | - |
| 1777200152 | 13.89° C | 33% | 1030.6 hPa | 0 mm | - | 590 W/m² | - |
| 1777199792 | 12.78° C | 33% | 1030.6 hPa | 0 mm | - | 590 W/m² | - |
| 1777199492 | 12.78° C | 36% | 1030.6 hPa | 0 mm | - | 589 W/m² | - |
| 1777199133 | 12.78° C | 36% | 1030.4 hPa | 0 mm | - | 589 W/m² | - |
| 1777198772 | 13.33° C | 35% | 1030.3 hPa | 0 mm | - | 591 W/m² | - |
| 1777198472 | 13.33° C | 36% | 1030.3 hPa | 0 mm | - | 594 W/m² | - |
| 1777198157 | 12.22° C | 38% | 1030.4 hPa | 0 mm | - | 596 W/m² | - |
| 1777197837 | 12.78° C | 38% | 1030.3 hPa | 0 mm | - | 610 W/m² | - |
| 1777197517 | 12.78° C | 39% | 1030.3 hPa | 0 mm | - | 609 W/m² | - |
| 1777197212 | 13.33° C | 41% | 1030.4 hPa | 0 mm | - | 515 W/m² | - |
| 1777196852 | 13.33° C | 41% | 1030.3 hPa | 0 mm | - | 593 W/m² | - |
* Rain latest hour (hover to see other rain measurements)
** Current wind speed in m/s (hover to see current wind gust speed)